세미나안내

[2016 10 05] 정기세미나 3rd

Noble Metal Nanocrystals with Unprecedented Morphologies

MSE Graduate Students and Researchers

관리자 | 2016.10.04 09:04 | 조회 724


Reception: MSE Graduate Students and Researchers

Reference: MSE Professors

Subject: The 3rd Seminar - Fall Semester, 2016

 

 Date: 2016. 10. 05 , 17:00 ~ 18:15

 Place: Science Building, Room.202 Multimedia Room

 Title: Noble Metal Nanocrystals with Unprecedented Morphologies

 Speaker: Prof. Sang Woo Han(KAIST)

Host of a Seminar: Prof. Moon-Ho Jo

 

Speaker Language: ENGLISH

 

Abstract:

 

The morphology of metal nanocrystals explicitly determines their plasmonic, electronic, and catalytic characteristics. In particular, the catalytic activity and selectivity of nanocrystals can be tuned by controlling their shape, as the exposed surfaces of nanocrystals have distinct crystallographic planes that can determine their overall catalytic properties. However, the control of the size, shape, and composition of nanocrystals has been limited due to the complex kinetics in the reduction of metal precursors and to the difficulty in finding suitable stabilizing agents. Therefore, the development of an efficient synthesis route for the preparation of nanocrystals with a specific morphology is still a radical issue to study their properties and applications. Here, facile wet-chemical synthetic processes of noble metal nanocrystals with unprecedented morphologies and their applications in catalysis are reported.

 

 

Department of Materials Science and Engineering




196개(1/10페이지)
세미나안내
번호 제목 글쓴이 조회 날짜
196 [2018 04 18] 정기세미나 7th 첨부파일 관리자 55 2018.04.16 10:44
195 [2018 04 09] 특별세미나 _Ph.D Seung Kwon Seol 첨부파일 관리자 112 2018.04.05 09:34
194 [2018 04 04] 정기세미나 6th 첨부파일 관리자 110 2018.04.02 09:02
193 [2018 03 28] 정기세미나 5th 첨부파일 관리자 159 2018.03.26 09:33
192 [2018 03 21] 정기세미나 4th 첨부파일 관리자 132 2018.03.19 09:34
191 [2018 03 20] 특별세미나 _Dr. Joon Sue Lee (UC 첨부파일 관리자 151 2018.03.16 10:52
190 [2018 03 14] 정기세미나 3rd 첨부파일 관리자 140 2018.03.12 09:14
189 [2018 03 07] 정기세미나 2nd 첨부파일 관리자 158 2018.03.06 15:43
188 [2018 02 28] 정기세미나 1st 첨부파일 관리자 177 2018.02.26 09:20
187 [2018 02 21] 신소재공학과 특별세미나 첨부파일 관리자 186 2018.02.19 11:15
186 [2018 02 02] 특별세미나 _Ph.D. Jang-Ung Park 첨부파일 관리자 341 2018.01.29 09:10
185 [2018 01 24] 특별세미나 _DR. Sang Soo Han (KI 첨부파일 관리자 299 2018.01.22 15:05
184 [2018 01 09] 특별세미나 _Ph.D. Jangyup Son (U 첨부파일 관리자 368 2018.01.09 09:25
183 [2017 12 28] 특별세미나 _Ph.D. Ju Hun Lee (UC 첨부파일 관리자 342 2017.12.26 10:44
182 [2017 12 06] 정기세미나 11th 첨부파일 관리자 364 2017.12.04 09:16
181 [2017 11 29] 정기세미나 10th 첨부파일 관리자 408 2017.11.20 09:05
180 [2017 11 21] 특별세미나 _Prof. Sung Hoon Kang 첨부파일 관리자 569 2017.11.20 09:06
179 [2017 11 22] 정기세미나 9th 첨부파일 관리자 313 2017.11.20 09:05
178 [2017 11 15] 정기세미나 8th 첨부파일 관리자 304 2017.11.07 08:51
177 [2017 11 08] 정기세미나 7th 첨부파일 관리자 277 2017.11.07 08:51